STARLINK-32632, 62262

Orbit data source: Space-Track

STARLINK-32632, 62262 is a payload satellite owned by SpaceX/Seattle (US) in LEO that was launched on Thu, 05 Dec 2024 UTC via an FALCON 9 launch vehicle from the Air Force Western Test Range (AFWTR). Payloads include a variety of satellites, spacecraft, and rockets equipped with specific instruments for various scientific and technological missions. These include communications satellites like Starlink; space stations such as the ISS; scientific satellites like the Hubble; Earth observation satellites from companies like Planet Labs, Umbra, and HawkEye 360; GPS; miniature CubeSats for education and research; and military/defense satellites.

Loading next visibility...
STARLINK-32632 details
Identifier
62262, 2024-231V
Orbit
LEO
Last TLE update15 hours ago
Origin
Flag of USSpaceX/Seattle (US)
ManufacturerSpaceX/Seattle
MissionOperational spacecraft
Bus & MotorSTARLINK V2M, Unknown motor
Mass730 kg wet, ~700 kg dry
Launch date (UTC)
2024-12-05 (2 months ago)
Launch vehicle
FALCON 9
Launch site
Air Force Western Test Range (AFWTR)
Object type
Payload
Rocket body
Debris
Shape & HBRUnknown
Radar Cross SectionLarge (>1 m²)

Expand to show TLE details & history

TLE from 15 hours ago
0 STARLINK-32632
1 62262U 24231V   25025.21630427  .00002159  00000-0  63961-4 0  9995
2 62262  53.1635 321.6130 0001422  97.2095 262.9071 15.39609707  9160
Epoch: 2025-01-25T05:11Z
Definitive object data (Epoch: 2025-01-25T05:11:28.688Z)
Latitude-0.00009°
Longitude118.97509°
Altitude448.286 km
Speed7.644 km/s
True Right ascension21h 26m 27s
True Declination0° 00' 00"
Sunlit
Object was in daylight at TLE epoch
Visualization TLE readout
Latitude10.85399°
Longitude-72.1312°
Altitude447.021 km
Speed7.646 km/s
Apparent Right ascension08h 56m 46s
Apparent Declination-13° 34' 28"
Sunlit
Object is in full shadow
Visualization observer readout
Local Sidereal Time21:16:57
Azimuth10.969° NNE
Elevation-63.287°
Doppler factor1
Orbital elements
Apogee altitude448.49 km
Perigee altitude446.549 km
Semi-major axis6,825.656 km
Eccentricity0.0001422
Inclination53.1635°
RAAN321.613°
Arg. of periapsis97.2095°
True anomaly262.89093°
Mean anomaly262.9071°
Eccentric anomaly262.89902°
Mean motion3.84881 °/min
BSTAR0.000063961
Orbital period93.54 mins
Loading maneuver chart data...
Loading historical data...
Loading historical data...
Loading historical data...
Loading historical data...
Loading historical data...
Loading historical data...
Loading historical data...

STARLINK-32632 Visibility forecast

Observer location: undefined°, undefined

Span
Click to sort rows by Start time (UTC) header in descending order
Start Az.
Max El. time (UTC)
Max El. Az.
Max El.
End time (UTC)
End Az.
5 mins2025-01-25 22:31:56.502Z237.88° WSW2025-01-25 22:33:56.502Z347.625° N43.972°2025-01-25 22:36:56.502Z46.875° ENE
5 mins2025-01-26 05:03:56.502Z312.439° NW2025-01-26 05:05:56.502Z326.394° NNW42.398°2025-01-26 05:08:56.502Z127.439° SE
|